Webcam

Mit webcam er opstillet i Qinngorput og har retning mod den sydlige del af Nuuk. Billedet opdateres automatisk.

BGGH 161850Z 12002KT 0350 SHSN VV003 M12/M12 Q1011